Location: Altenst�hlen
(53.5567°N, 8.9425°E)
Time: 10:30:32
(UTC+00:00)

Daily predictions for brighter satellites

Satellite Brightness Start Highest point End
(mag) Time Altitude Azimuth Time Altitude Azimuth Time Altitude Azimuth
Cosmos 1844 3.8 16:37:15 10° SSW 16:43:01 88° ESE 16:48:52 10° NNE
CSL-04 Rocket 4.2 16:38:09 10° SE 16:43:09 37° ENE 16:48:07 10° N
Unknown 3.7 16:39:58 10° W 16:44:07 84° S 16:48:18 10° E
YAOGAN 6 3.5 16:41:37 10° SE 16:44:47 29° ENE 16:47:55 10° N
YAOGAN 1 3.4 16:41:37 10° ESE 16:45:23 30° ENE 16:49:10 10° N
Unknown 3.7 16:41:37 10° W 16:45:46 84° S 16:49:56 10° E
Cosmos 2263 Rocket 3.9 16:42:15 10° W 16:47:08 29° NW 16:51:59 10° NNE
Unknown 3.7 16:43:17 10° W 16:47:27 84° S 16:51:37 10° E
Cosmos 1777 Rocket 4.1 16:42:41 10° NNW 16:47:56 85° WSW 16:53:09 10° SSE
Unknown 3.5 16:45:08 10° W 16:48:59 77° S 16:52:49 10° ESE
Meteor 1-11 4.3 16:44:48 10° N 16:50:35 69° ENE 16:56:23 10° SSE
Cosmos 1726 Rocket 3.5 16:46:17 10° S 16:50:40 79° E 16:55:01 10° NNE
Unknown 3.7 16:46:36 10° W 16:50:45 84° S 16:54:56 10° E
Cosmos 1461 3.5 16:48:11 10° NW 16:52:12 59° SW 16:56:19 10° SSE
Starlink (trailer) 3.7 16:48:15 10° W 16:52:26 84° S 16:56:35 10° E
CZ-4 R/B 1.9 16:48:35 10° SE 16:52:32 40° ENE 16:56:32 10° N
Unknown 3.7 16:49:57 10° W 16:54:06 85° S 16:58:16 10° E
FengYun 1-2 T 4.4 16:49:10 10° SE 16:54:36 54° ENE 17:00:03 10° N
Unknown 3.7 16:51:39 10° W 16:55:49 85° S 16:59:59 10° E
ATLAS CENTAUR R/B 3.1 16:52:21 10° NW 16:56:05 23° N 16:59:38 10° ENE
EO 1 Delta rocket 4.5 16:52:18 10° SE 16:56:44 39° ENE 17:01:50 10° N
Cosmos 1833 Rocket 2.8 16:53:28 10° NNW 16:59:07 85° WSW 17:04:46 10° SSE
Unknown 3.6 16:56:37 10° W 17:00:46 85° S 17:04:45 11° E
ATLAS 3B R/B 4.1 16:58:04 10° SE 17:01:40 15° ESE 17:05:11 10° ENE
Unknown 3.6 16:58:14 10° W 17:02:24 85° S 17:06:18 12° E
Cosmos 1953 3.2 16:59:22 10° SSW 17:03:21 54° WNW 17:07:22 10° N
Unknown 3.6 16:59:54 10° W 17:04:04 85° S 17:07:54 12° E
Unknown 3.7 17:01:31 10° W 17:05:42 85° S 17:09:31 12° E
Unknown 3.6 17:03:13 10° W 17:07:23 85° S 17:11:06 13° E
CENTAUR R/B 3.9 17:03:45 10° SE 17:07:28 17° ESE 17:11:09 11° ENE
Cosmos 1242 Rocket 3.8 17:04:49 10° NNW 17:08:23 47° W 17:11:55 10° S
Unknown 3.6 17:04:58 10° W 17:09:08 85° S 17:12:48 13° E
Cosmos 292 Rocket 3.7 17:04:57 10° SSW 17:09:42 82° ESE 17:14:29 10° NNE
SL-27 R/B 4.1 17:08:05 10° N 17:10:16 16° NE 17:11:28 14° ENE
Cosmos 2084 Rocket 3.7 17:05:55 10° NW 17:10:22 75° SW 17:14:46 10° SE
Unknown 3.6 17:08:14 10° W 17:12:24 85° S 17:15:55 14° E
Unknown 3.6 17:08:18 10° W 17:12:27 85° S 17:15:59 14° E
Unknown 3.6 17:09:53 10° W 17:14:03 85° S 17:17:30 15° E
Cosmos 1153 Rocket 4.5 17:09:54 10° N 17:15:59 59° ENE 17:22:03 10° SSE
SJ 16-02 2.2 17:12:11 10° N 17:16:03 29° NE 17:19:25 12° ESE
Unknown 3.6 17:13:07 10° W 17:17:17 85° S 17:20:36 16° E
Unknown 3.6 17:14:05 10° W 17:17:59 71° SSW 17:21:17 14° ESE
Unknown 3.6 17:16:32 10° W 17:20:42 84° S 17:23:53 17° E
Cosmos 2058 Rocket 3.2 17:17:36 10° SSW 17:21:58 78° WNW 17:26:22 10° N
Unknown 3.6 17:18:11 10° W 17:22:21 84° S 17:25:28 17° E
Abrixas rocket 3.4 17:20:06 10° SW 17:22:47 27° S 17:24:36 16° ESE
Cosmos 1300 3.6 17:20:07 10° SSE 17:23:24 28° E 17:26:41 10° NNE
COBE Rocket 3.9 17:18:14 10° NNE 17:23:25 69° E 17:28:27 10° S
Unknown 3.6 17:19:51 10° W 17:24:01 83° S 17:27:05 18° E
Unknown 3.6 17:21:33 10° W 17:25:43 83° S 17:28:43 18° E
Envisat 3.2 17:22:01 10° S 17:27:07 77° WSW 17:32:14 10° NNW
Cosmos 2227 Rocket 4.3 17:25:22 10° NNW 17:28:06 13° N 17:30:51 10° NNE
Unknown 3.6 17:24:52 10° W 17:29:02 83° S 17:31:53 19° E
COSMO-SKYMED 1 2.6 17:26:08 10° NNE 17:30:27 57° E 17:34:44 10° S
Unknown 3.6 17:26:35 10° W 17:30:44 82° S 17:33:32 20° E
Unknown 3.6 17:28:09 10° W 17:32:18 82° S 17:35:03 21° E
Cosmos 2297 Rocket 4.3 17:29:58 10° NNW 17:32:43 13° N 17:35:28 10° NNE
Cosmos 1898 Rocket 3.6 17:28:01 10° NNW 17:33:15 58° ENE 17:38:30 10° SE
Cosmos 1356 4.3 17:29:54 10° SSW 17:33:17 53° WNW 17:36:41 10° N
Unknown 3.6 17:29:45 10° W 17:33:55 82° S 17:36:35 21° E
CSL-04 Debris 4.1 17:28:37 10° SSE 17:34:06 81° ENE 17:39:38 10° NNW
Cosmos 2082 Rocket 2.6 17:28:40 10° NW 17:34:22 70° WSW 17:40:01 10° SSE
Unknown 3.6 17:31:30 10° W 17:35:39 81° S 17:38:16 22° ESE
Unknown 3.6 17:33:00 10° W 17:37:10 82° S 17:39:41 23° E
CZ-2D R/B 3.4 17:34:29 10° SE 17:38:13 50° ENE 17:42:00 10° N
Cosmos 2058 3.0 17:34:22 10° N 17:38:31 52° ENE 17:42:38 10° SSE
USA 238 DEB 3.8 17:33:10 10° SSW 17:39:41 55° SE 17:46:09 11° NE
USA 238 3.8 17:33:17 10° SSW 17:39:47 55° SE 17:46:13 11° NE
Unknown 3.6 17:36:17 10° W 17:40:26 81° S 17:42:50 24° ESE
Cosmos 1844 Rocket 4.0 17:36:25 10° WSW 17:41:40 38° NW 17:46:54 10° NNE
Unknown 3.6 17:37:57 10° W 17:42:07 81° S 17:44:27 25° ESE
H-2A R/B 3.2 17:40:42 20° E 17:42:38 25° NE 17:47:00 10° N
Unknown 4.3 17:40:13 10° W 17:43:46 42° SSW 17:46:21 17° SE
Unknown 3.6 17:39:48 10° W 17:43:51 73° SSW 17:46:07 25° ESE
Unknown 3.6 17:39:48 10° W 17:43:58 79° S 17:46:14 26° ESE
Cosmos 1459 Rocket 4.0 17:37:54 10° N 17:44:02 58° ENE 17:50:15 10° SSE
Cosmos 1076 Rocket 3.4 17:40:31 10° N 17:44:54 79° ENE 17:49:15 10° SSE
Cosmos 1766 Rocket 4.2 17:41:09 10° N 17:45:07 33° ENE 17:47:01 23° ESE
Unknown 3.6 17:41:19 10° W 17:45:29 80° S 17:47:41 27° ESE
Unknown 3.6 17:42:57 10° W 17:47:07 80° S 17:49:16 28° ESE
Cosmos 1339 Rocket 4.5 17:41:06 10° S 17:47:14 90° WNW 17:53:29 10° N
Unknown 3.6 17:46:17 10° W 17:50:27 79° S 17:52:28 29° ESE
Unknown 3.6 17:47:55 10° W 17:52:05 78° S 17:54:02 30° ESE
Cosmos 1939 Rocket 2.8 17:48:25 10° SSE 17:52:24 64° ENE 17:56:29 10° N
Cosmos 1726 3.8 17:49:47 10° SW 17:53:10 35° WNW 17:56:35 10° N
Unknown 3.6 17:49:35 10° W 17:53:44 78° S 17:55:37 31° ESE
IRS-1A Rocket 4.2 17:49:18 10° SE 17:54:41 59° ENE 18:00:09 10° NNW
Cosmos 1408 Rocket 4.4 17:50:54 10° N 17:54:41 29° ENE 17:54:56 28° ENE
Unknown 3.6 17:51:18 10° W 17:55:26 77° S 17:57:16 32° ESE
In-Cosmos 22 Rocket 4.1 17:50:42 10° N 17:56:08 69° ENE 18:01:38 10° SSE
Unknown 3.6 17:52:28 10° W 17:56:34 74° SSW 17:58:19 33° ESE
Cosmos 2061 Rocket 4.1 17:51:33 10° N 17:57:41 54° ENE 18:03:44 10° SSE
ATLAS 5 CENTAUR R/B 3.2 17:53:42 10° W 17:57:56 32° NNW 18:01:48 14° NE
Unknown 3.6 17:54:37 10° W 17:58:46 76° SSW 18:00:28 34° ESE
Unknown 3.6 17:55:30 10° W 17:59:39 75° SSW 18:01:18 35° ESE
Unknown 3.7 17:56:19 10° W 18:00:27 73° SSW 18:02:06 35° ESE
Cosmos 2151 3.2 17:56:26 10° N 18:00:37 46° ENE 18:02:29 28° SE
NOSS 3-2 (A) 3.5 17:55:40 10° SSW 18:01:26 60° SE 18:06:32 17° NE
Okean 3 Rocket 3.6 17:57:37 10° N 18:02:08 59° ENE 18:05:52 14° SSE
Unknown 3.7 17:58:09 10° W 18:02:18 73° SSW 18:03:53 36° ESE
Unknown 3.6 18:01:18 10° W 18:05:26 73° SSW 18:06:52 39° ESE
Unknown 3.7 18:04:36 10° W 18:08:45 72° SSW 18:10:03 41° ESE
Ariane Rocket 2.9 18:04:38 10° SSE 18:09:44 81° ENE 18:14:53 10° NNW
Unknown 3.7 18:06:13 10° W 18:10:21 72° SSW 18:11:36 43° ESE
ADEOS Rocket 4.1 18:03:50 10° NNE 18:10:26 31° E 18:13:06 24° ESE
Cosmos 1812 Rocket 3.6 18:06:22 10° SSW 18:10:49 81° WNW 18:15:19 10° N
Unknown 3.7 18:07:55 10° W 18:12:04 71° SSW 18:13:14 44° SE
Meteor 2-1 Rocket 4.2 18:07:05 10° S 18:12:30 59° E 18:18:02 10° NNE
Cosmos 468 Rocket 4.2 18:07:41 10° S 18:12:40 45° ESE 18:15:41 22° NE
Unknown 3.7 18:09:31 10° W 18:13:39 70° SSW 18:14:46 45° SE
HJ-1C 3.2 18:13:18 60° SE 18:13:45 72° ENE 18:17:07 10° N
Resurs 01 Rocket 3.4 18:15:51 18° NE 18:15:51 18° NE 18:17:48 10° N
Cosmos 2173 Rocket 3.9 18:08:38 10° N 18:14:56 88° ENE 18:21:07 10° S
Cosmos 1727 Rocket 4.1 18:11:17 10° SSW 18:17:28 80° W 18:23:42 10° N
SKYMED 2 4.3 18:14:17 10° N 18:18:32 54° WNW 18:22:46 10° SW
Cosmos 2278 Rocket 2.7 18:13:01 10° SW 18:18:38 61° NW 18:24:18 10° NNE
Cosmos 990 Rocket 4.1 18:13:41 10° NNW 18:18:53 75° WSW 18:23:47 12° SSE
deb Kosmos-1763 3.9 18:15:24 10° NNW 18:19:08 79° ENE 18:19:41 62° SE
Lacrosse 5 4.1 18:16:04 10° W 18:19:46 21° SW 18:23:28 10° S
Unknown 3.7 18:16:13 10° W 18:20:21 67° SSW 18:21:13 51° SE
Cosmos 1864 Rocket 4.4 18:15:07 10° N 18:21:13 61° ENE 18:25:35 20° SSE
YAOGAN 1 3.9 18:17:17 10° SSW 18:21:23 40° W 18:25:30 10° NNW
Cosmos 1937 Rocket 3.4 18:16:37 10° NNW 18:21:48 87° WSW 18:25:12 22° SSE
Unknown 3.7 18:17:54 10° W 18:22:01 66° SSW 18:22:50 52° SE
Cosmos 2150 Rocket 4.2 18:18:05 10° NNW 18:23:26 51° ENE 18:24:42 42° E
Unknown 3.7 18:19:33 10° W 18:23:40 66° SSW 18:24:25 53° SE
Cosmos 858 Rocket 4.5 18:18:50 10° NNW 18:24:04 81° WSW 18:27:44 20° SSE
Cosmos 2297 3.6 18:19:10 10° SSW 18:24:48 65° ESE 18:29:18 17° NE
Unknown 3.7 18:21:11 10° W 18:25:19 65° SSW 18:25:59 54° SSE
Unknown 3.7 18:22:52 10° W 18:26:59 64° SSW 18:27:36 55° SSE
CZ-4 R/B 3.6 18:24:01 10° SSW 18:27:40 28° W 18:31:22 10° NW
BREEZE-M DEB (TANK) 3.5 18:20:58 10° SW 18:27:55 34° S 18:28:17 33° SSE
Cosmos 1825 4.0 18:24:26 10° N 18:25:54 20° NNE 18:25:54 20° NNE
NOSS 3-2 (C) 3.4 18:22:46 10° SSW 18:28:34 61° SE 18:31:43 31° ENE
ARGOS 3.4 18:27:50 43° E 18:28:38 46° ENE 18:33:49 10° N
Cosmos 1802 Rocket 4.0 18:23:00 10° N 18:29:29 88° W 18:35:53 10° S
Unknown 3.7 18:26:11 10° W 18:30:18 63° SSW 18:30:47 57° SSE
SJ-11-01 4.1 18:28:54 43° SE 18:30:23 71° ENE 18:35:04 10° N
Starlink (trailer) 3.7 18:27:50 10° W 18:31:57 62° SSW 18:32:23 57° SSE
Unknown 3.7 18:29:31 10° W 18:33:37 61° SSW 18:34:00 58° S
Cosmos 2123 Rocket 4.0 18:27:39 10° SSE 18:33:43 53° E 18:39:45 10° NNE
USA 116 4.2 18:30:40 10° N 18:33:48 48° WNW 18:37:10 10° SW
Cosmos 1570 Rocket 4.2 18:30:09 10° S 18:35:00 49° ESE 18:35:00 49° ESE
Unknown 3.8 18:31:14 10° W 18:35:20 60° SSW 18:35:38 58° S
SJ-6B 3.8 18:36:45 33° N 18:36:45 33° N 18:39:01 10° N
Cosmos 2233 Rocket 4.1 18:29:38 10° N 18:35:48 52° ENE 18:37:21 43° ESE
ATLAS CENTAUR R/B 1.9 18:31:36 10° NW 18:36:02 48° NNE 18:36:02 48° NNE
Cosmos 1892 2.7 18:33:25 10° NNW 18:37:14 78° W 18:37:37 68° SSW
Cosmos 1000 Rocket 4.4 18:33:15 10° S 18:39:29 86° E 18:45:49 10° NNE
Cosmos 1725 Rocket 3.9 18:33:10 10° N 18:39:30 78° ENE 18:43:51 21° SSE
Unknown 3.9 18:36:11 10° W 18:40:17 57° SSW 18:40:24 57° SSW
Cosmos 372 Rocket 3.9 18:35:57 10° NNW 18:41:04 62° ENE 18:41:29 59° E
Unknown 3.9 18:37:49 10° W 18:41:54 57° SSW 18:41:58 57° SSW
Cosmos-2242 2.8 18:37:37 10° S 18:41:59 83° E 18:46:20 10° NNE
Unknown 3.9 18:39:30 10° W 18:43:33 56° SSW 18:43:33 56° SSW
Cosmos 44 3.0 18:40:09 10° SW 18:45:00 78° SE 18:45:15 75° E
Unknown 4.0 18:41:06 10° W 18:45:10 56° SSW 18:45:10 56° SSW
SL-27 R/B 3.3 18:42:27 10° NNW 18:45:03 46° WNW 18:45:03 46° WNW
Unknown 4.0 18:42:48 10° W 18:46:45 54° SSW 18:46:45 54° SSW
Cosmos 1763 Rocket 3.4 18:42:00 10° SSW 18:47:14 65° ESE 18:47:27 64° E
CZ-2C R/B 3.5 18:48:12 48° ENE 18:48:12 48° ENE 18:53:37 10° N
Unknown 4.1 18:44:33 10° W 18:48:27 52° SSW 18:48:27 52° SSW
ATLAS 3B R/B 2.6 18:44:30 10° SSW 18:51:05 60° SE 18:52:29 50° E
Unknown 4.2 18:47:49 10° W 18:51:34 51° SW 18:51:34 51° SW
Unknown 4.2 18:47:53 10° W 18:51:38 50° SW 18:51:38 50° SW
Unknown 4.2 18:49:29 10° W 18:53:09 50° SW 18:53:09 50° SW
Cosmos 2298 Rocket 3.9 18:48:35 10° NNW 18:53:57 86° ENE 18:54:40 67° SE
SJ 16-02 2.3 18:50:37 10° NW 18:54:50 45° WSW 18:56:27 31° SSW
CENTAUR R/B 2.5 18:50:34 10° SSW 18:56:39 67° SE 18:58:23 50° ENE
Unknown 4.3 18:52:43 10° W 18:56:16 48° SW 18:56:16 48° SW
Unknown 4.5 18:56:08 10° W 18:59:33 44° SW 18:59:33 44° SW
Cosmos 2016 Rocket 4.3 18:53:59 10° NNW 19:00:14 67° W 19:06:30 10° S
Cosmos 1833 4.1 18:54:42 10° NNW 19:00:19 64° NE 19:00:23 64° ENE
Cosmos 1408 4.4 19:02:33 10° NNW 19:04:20 26° NNW 19:04:20 26° NNW
SPOT 3 Rocket 3.5 19:05:59 71° S 19:06:33 84° WSW 19:11:49 10° NNW
Meteor 2-3 Rocket 3.7 19:02:23 10° N 19:07:59 70° ENE 19:07:59 70° ENE
Cosmos 2227 Rocket 3.9 19:10:12 10° NNW 19:14:09 21° NNE 19:14:09 21° NNE
Cosmos 2297 Rocket 3.8 19:14:37 10° NNW 19:18:26 22° NNE 19:18:26 22° NNE
H-2A R/B 2.2 19:21:20 73° SW 19:21:35 75° WSW 19:27:04 10° NNW
USA 238 DEB 4.2 19:24:02 10° WSW 19:30:43 58° NNW 19:33:35 35° NNE
USA 238 4.1 19:24:08 10° WSW 19:30:49 58° NNW 19:33:39 36° NNE
Cosmos 1125 Rocket 4.2 19:34:19 10° NNW 19:38:14 50° NNW 19:38:14 50° NNW
Timation 2 Rocket 4.1 19:34:40 10° NNW 19:39:40 61° NNW 19:39:40 61° NNW
ATLAS 5 CENTAUR R/B 3.5 19:39:27 10° NW 19:43:20 29° N 19:43:20 29° N
Resurs 01 Rocket 3.8 19:53:26 22° NNW 19:53:26 22° NNW 19:55:06 10° NNW
NOSS 3-2 (A) 4.2 19:46:30 10° WSW 19:52:31 52° NNW 19:53:56 45° NNE
ADEOS Rocket 3.5 19:48:56 10° NNE 19:56:38 76° WNW 19:59:59 36° SSW
Cosmos 1238 Rocket 4.4 19:51:43 10° NNW 19:58:10 57° W 19:58:18 57° W
Cosmos 2278 Rocket 4.4 19:59:40 10° WNW 20:03:55 21° NNW 20:07:32 12° NNE
ARGOS 4.4 20:09:21 36° W 20:09:21 36° W 20:14:03 10° NNW
ATLAS CENTAUR R/B 4.1 20:10:50 10° NW 20:12:14 18° WNW 20:12:14 18° WNW
Cosmos 2263 Rocket 4.5 20:16:14 10° NNW 20:18:50 15° N 20:18:50 15° N
NOSS 3-2 (C) 4.2 20:13:41 10° WSW 20:19:12 51° NW 20:19:12 51° NW
ATLAS 3B R/B 3.7 20:35:27 10° WSW 20:39:46 38° W 20:39:46 38° W
CENTAUR R/B 3.7 20:41:21 10° W 20:45:37 39° WNW 20:45:37 39° WNW
Cosmos 2227 Rocket 4.3 20:54:03 10° NNW 20:55:57 21° NNW 20:55:57 21° NNW
Cosmos 2297 Rocket 4.4 20:58:27 10° NNW 21:00:14 21° NNW 21:00:14 21° NNW
